JBU7172 KSLC-KLAX

Flight info

Callsign JBU7172
Flight time 1h 20m
Altitude 38000
Route ARCHZ1 WINEN LAKRR Q73 HAKMN ANJLL4
Aircraft A20N/M-SDE2E3FGHIRWXY/LB1

Departure

Time 2026-05-06 19:53
Airport Salt Lake City International Airport (KSLC)

Arrival

Time 2026-05-06 21:14
Airport Los Angeles International Airport (KLAX)
Time Latitude Longitude Altitude Speed Heading
2026-05-06 19:00 40.77776 -111.97822 4235 ft 0 kts 265°
2026-05-06 19:48 40.77777 -111.97795 4233 ft 0 kts 265°
2026-05-06 19:48 40.77784 -111.97763 4235 ft 5 kts 237°
2026-05-06 19:48 40.77803 -111.97737 4234 ft 0 kts 204°
2026-05-06 19:50 40.77801 -111.97737 4234 ft 2 kts 191°
2026-05-06 19:51 40.77775 -111.97715 4233 ft 7 kts 146°
2026-05-06 19:51 40.77728 -111.97637 4233 ft 22 kts 100°
2026-05-06 19:51 40.77711 -111.97517 4236 ft 12 kts 147°
2026-05-06 19:51 40.77625 -111.97508 4236 ft 14 kts 175°
2026-05-06 19:52 40.77471 -111.97475 4234 ft 25 kts 157°
2026-05-06 19:52 40.77454 -111.97406 4233 ft 10 kts 69°
2026-05-06 19:52 40.77505 -111.97325 4233 ft 15 kts 14°
2026-05-06 19:52 40.77819 -111.97357 4233 ft 77 kts 356°
2026-05-06 19:53 40.78538 -111.97438 4234 ft 128 kts 354°
2026-05-06 19:53 40.79567 -111.97573 4258 ft 166 kts 351°
2026-05-06 19:53 40.80738 -111.97683 4743 ft 171 kts 352°
2026-05-06 19:53 40.81940 -111.97869 5361 ft 176 kts 351°
2026-05-06 19:54 40.83170 -111.98087 5959 ft 181 kts 351°
2026-05-06 19:54 40.84451 -111.98290 6449 ft 189 kts 351°
2026-05-06 19:54 40.85847 -111.98534 6515 ft 227 kts 351°
2026-05-06 19:54 40.87554 -111.98719 6784 ft 256 kts 355°
2026-05-06 19:55 40.89354 -111.98862 7513 ft 264 kts 352°
2026-05-06 19:55 40.91099 -111.99601 8476 ft 267 kts 331°
2026-05-06 19:55 40.92486 -112.01252 9392 ft 274 kts 307°
2026-05-06 19:55 40.93211 -112.03621 10254 ft 288 kts 283°
2026-05-06 19:56 40.93132 -112.06385 10638 ft 319 kts 259°
2026-05-06 19:56 40.92145 -112.09162 10900 ft 352 kts 236°
2026-05-06 19:56 40.90338 -112.11460 11475 ft 367 kts 219°
2026-05-06 19:56 40.88242 -112.13448 12215 ft 374 kts 217°
2026-05-06 19:57 40.86112 -112.15477 12978 ft 380 kts 219°
2026-05-06 19:57 40.84029 -112.17604 13718 ft 385 kts 221°
2026-05-06 19:57 40.81938 -112.19865 14433 ft 389 kts 222°
2026-05-06 19:57 40.79863 -112.22183 15213 ft 391 kts 223°
2026-05-06 19:58 40.77789 -112.24523 15958 ft 394 kts 222°
2026-05-06 19:58 40.75479 -112.26538 16665 ft 403 kts 208°
2026-05-06 19:58 40.72827 -112.27803 17371 ft 409 kts 193°
2026-05-06 19:58 40.70001 -112.28422 18045 ft 414 kts 189°
2026-05-06 19:59 40.67139 -112.28989 18691 ft 418 kts 189°
2026-05-06 19:59 40.64245 -112.29566 19231 ft 424 kts 189°
2026-05-06 19:59 40.61310 -112.30158 19775 ft 429 kts 189°
2026-05-06 19:59 40.58349 -112.30759 20322 ft 434 kts 189°
2026-05-06 20:00 40.55378 -112.31568 20853 ft 437 kts 198°
2026-05-06 20:00 40.52455 -112.32766 21401 ft 442 kts 199°
2026-05-06 20:00 40.49507 -112.33987 21906 ft 447 kts 199°
2026-05-06 20:00 40.46567 -112.35198 22436 ft 451 kts 199°
2026-05-06 20:01 40.43552 -112.36435 22937 ft 456 kts 199°
2026-05-06 20:01 40.40498 -112.37684 23443 ft 461 kts 199°
2026-05-06 20:01 40.37417 -112.38942 23924 ft 465 kts 199°
2026-05-06 20:01 40.34313 -112.40207 24378 ft 468 kts 199°
2026-05-06 20:02 40.31194 -112.41478 24840 ft 471 kts 199°
2026-05-06 20:02 40.28050 -112.42757 25286 ft 474 kts 199°
2026-05-06 20:02 40.24894 -112.44041 25725 ft 477 kts 199°
2026-05-06 20:02 40.21710 -112.45334 26161 ft 480 kts 199°
2026-05-06 20:03 40.18539 -112.46736 26561 ft 481 kts 204°
2026-05-06 20:03 40.15520 -112.48633 26966 ft 482 kts 211°
2026-05-06 20:03 40.12607 -112.50705 27354 ft 485 kts 211°
2026-05-06 20:03 40.09633 -112.52813 27760 ft 488 kts 211°
2026-05-06 20:04 40.06638 -112.54927 28165 ft 490 kts 211°
2026-05-06 20:04 40.03621 -112.57049 28581 ft 492 kts 211°
2026-05-06 20:04 40.00598 -112.59172 28923 ft 495 kts 211°
2026-05-06 20:04 39.97550 -112.61310 29270 ft 497 kts 211°
2026-05-06 20:05 39.94493 -112.63452 29624 ft 500 kts 211°
2026-05-06 20:05 39.91414 -112.65606 29941 ft 502 kts 211°
2026-05-06 20:05 39.88328 -112.67764 30286 ft 504 kts 211°
2026-05-06 20:05 39.85268 -112.69902 30556 ft 507 kts 211°
2026-05-06 20:06 39.82151 -112.72076 30858 ft 509 kts 211°
2026-05-06 20:06 39.79021 -112.74257 31165 ft 510 kts 211°
2026-05-06 20:06 39.75881 -112.76443 31519 ft 511 kts 210°
2026-05-06 20:06 39.72748 -112.78622 31912 ft 510 kts 210°
2026-05-06 20:07 39.69610 -112.80777 32297 ft 510 kts 208°
2026-05-06 20:07 39.66344 -112.82574 32665 ft 511 kts 200°
2026-05-06 20:07 39.63923 -112.83575 32926 ft 511 kts 198°
2026-05-06 20:07 39.61185 -112.84655 33222 ft 511 kts 198°
2026-05-06 20:08 39.57784 -112.86001 33578 ft 511 kts 198°
2026-05-06 20:08 39.54431 -112.87333 33911 ft 510 kts 198°
2026-05-06 20:08 39.51038 -112.88682 34237 ft 510 kts 198°
2026-05-06 20:08 39.47651 -112.90029 34523 ft 509 kts 198°
2026-05-06 20:09 39.44263 -112.91375 34815 ft 508 kts 198°
2026-05-06 20:09 39.40880 -112.92718 35085 ft 508 kts 198°
2026-05-06 20:09 39.37502 -112.94057 35338 ft 507 kts 198°
2026-05-06 20:09 39.34108 -112.95402 35602 ft 507 kts 198°
2026-05-06 20:10 39.30738 -112.96735 35841 ft 506 kts 198°
2026-05-06 20:10 39.27367 -112.98068 36088 ft 506 kts 198°
2026-05-06 20:10 39.24040 -112.99382 36328 ft 506 kts 198°
2026-05-06 20:10 39.20672 -113.00711 36555 ft 505 kts 198°
2026-05-06 20:11 39.17312 -113.02035 36777 ft 505 kts 198°
2026-05-06 20:11 39.13947 -113.03360 36996 ft 504 kts 198°
2026-05-06 20:11 39.10579 -113.04685 37193 ft 504 kts 198°
2026-05-06 20:11 39.07223 -113.06004 37407 ft 504 kts 198°
2026-05-06 20:12 39.03871 -113.07319 37599 ft 504 kts 198°
2026-05-06 20:12 39.00555 -113.08620 37791 ft 503 kts 198°
2026-05-06 20:12 38.97204 -113.09932 37970 ft 503 kts 198°
2026-05-06 20:12 38.93847 -113.11247 38074 ft 503 kts 198°
2026-05-06 20:13 38.87150 -113.13864 38072 ft 501 kts 198°
2026-05-06 20:13 38.80471 -113.16469 38075 ft 502 kts 198°
2026-05-06 20:14 38.73796 -113.19068 38079 ft 501 kts 198°
2026-05-06 20:14 38.67120 -113.21662 38098 ft 501 kts 198°
2026-05-06 20:15 38.60483 -113.24236 38116 ft 501 kts 198°
2026-05-06 20:15 38.53800 -113.26823 38120 ft 501 kts 197°
2026-05-06 20:16 38.47124 -113.29403 38125 ft 501 kts 197°
2026-05-06 20:16 38.40462 -113.31972 38114 ft 500 kts 197°
2026-05-06 20:17 38.33793 -113.34537 38096 ft 500 kts 197°
2026-05-06 20:17 38.27155 -113.37087 38067 ft 500 kts 197°
2026-05-06 20:18 38.20480 -113.39645 38040 ft 501 kts 197°
2026-05-06 20:18 38.13803 -113.42200 38027 ft 500 kts 197°
2026-05-06 20:19 38.07182 -113.44728 38020 ft 500 kts 197°
2026-05-06 20:19 38.00525 -113.47265 38015 ft 499 kts 197°
2026-05-06 20:20 37.93870 -113.49797 38008 ft 499 kts 197°
2026-05-06 20:20 37.87261 -113.52545 38007 ft 499 kts 200°
2026-05-06 20:21 37.80712 -113.55468 38016 ft 499 kts 200°
2026-05-06 20:21 37.74141 -113.58352 38014 ft 500 kts 199°
2026-05-06 20:22 37.67558 -113.61210 38011 ft 500 kts 199°
2026-05-06 20:22 37.61016 -113.64040 38011 ft 500 kts 199°
2026-05-06 20:23 37.54417 -113.66891 38017 ft 501 kts 199°
2026-05-06 20:23 37.47807 -113.69741 38011 ft 502 kts 199°
2026-05-06 20:24 37.41216 -113.72578 37998 ft 499 kts 199°
2026-05-06 20:24 37.34630 -113.75407 37993 ft 500 kts 199°
2026-05-06 20:25 37.28094 -113.78210 37992 ft 499 kts 199°
2026-05-06 20:25 37.21515 -113.81026 37995 ft 499 kts 199°
2026-05-06 20:26 37.14929 -113.83840 38006 ft 499 kts 199°
2026-05-06 20:26 37.08351 -113.86644 37992 ft 499 kts 199°
2026-05-06 20:27 37.01814 -113.89428 37984 ft 499 kts 199°
2026-05-06 20:27 36.95223 -113.92228 37982 ft 499 kts 199°
2026-05-06 20:28 36.88633 -113.95023 37969 ft 499 kts 198°
2026-05-06 20:28 36.82045 -113.97812 37971 ft 499 kts 198°
2026-05-06 20:29 36.75494 -114.00581 37964 ft 499 kts 198°
2026-05-06 20:29 36.68914 -114.03356 37967 ft 499 kts 198°
2026-05-06 20:30 36.59038 -114.07513 37961 ft 499 kts 198°
2026-05-06 20:31 36.52493 -114.10260 37963 ft 498 kts 198°
2026-05-06 20:31 36.45914 -114.13018 37966 ft 497 kts 198°
2026-05-06 20:32 36.39342 -114.15768 37958 ft 497 kts 198°
2026-05-06 20:32 36.32824 -114.18491 37965 ft 496 kts 198°
2026-05-06 20:33 36.27382 -114.20760 37959 ft 495 kts 197°
2026-05-06 20:33 36.20844 -114.23482 37958 ft 495 kts 197°
2026-05-06 20:34 36.14319 -114.26197 37959 ft 495 kts 198°
2026-05-06 20:34 36.08219 -114.30087 37955 ft 495 kts 217°
2026-05-06 20:35 36.03239 -114.35908 37960 ft 493 kts 230°
2026-05-06 20:35 35.98693 -114.42249 37953 ft 493 kts 230°
2026-05-06 20:36 35.94127 -114.48568 37971 ft 493 kts 230°
2026-05-06 20:36 35.89585 -114.54833 37986 ft 493 kts 230°
2026-05-06 20:37 35.85012 -114.61131 37999 ft 492 kts 230°
2026-05-06 20:37 35.80437 -114.67420 38016 ft 493 kts 230°
2026-05-06 20:38 35.75854 -114.73706 38030 ft 493 kts 230°
2026-05-06 20:38 35.71269 -114.79988 38038 ft 493 kts 230°
2026-05-06 20:39 35.66674 -114.86271 38038 ft 493 kts 230°
2026-05-06 20:39 35.62110 -114.92514 38039 ft 493 kts 230°
2026-05-06 20:40 35.57521 -114.98789 38040 ft 493 kts 230°
2026-05-06 20:40 35.52942 -115.05036 38044 ft 493 kts 229°
2026-05-06 20:41 35.48321 -115.11270 38040 ft 493 kts 228°
2026-05-06 20:41 35.43601 -115.17403 38044 ft 493 kts 228°
2026-05-06 20:42 35.38916 -115.23487 38039 ft 493 kts 228°
2026-05-06 20:42 35.34213 -115.29606 38036 ft 493 kts 228°
2026-05-06 20:43 35.29503 -115.35730 38042 ft 493 kts 228°
2026-05-06 20:43 35.24789 -115.41848 38029 ft 494 kts 228°
2026-05-06 20:44 35.20090 -115.47934 38025 ft 494 kts 228°
2026-05-06 20:44 35.15358 -115.54052 38020 ft 494 kts 227°
2026-05-06 20:45 35.10628 -115.60150 38025 ft 494 kts 227°
2026-05-06 20:45 35.05901 -115.66194 38017 ft 494 kts 227°
2026-05-06 20:46 35.01142 -115.72265 37960 ft 496 kts 227°
2026-05-06 20:46 34.98751 -115.75315 37747 ft 496 kts 227°
2026-05-06 20:46 34.96360 -115.78361 37330 ft 497 kts 227°
2026-05-06 20:46 34.93969 -115.81404 36856 ft 496 kts 227°
2026-05-06 20:47 34.91580 -115.84444 36393 ft 497 kts 227°
2026-05-06 20:47 34.89185 -115.87487 35941 ft 498 kts 227°
2026-05-06 20:47 34.86780 -115.90541 35497 ft 500 kts 227°
2026-05-06 20:47 34.84393 -115.93570 35068 ft 502 kts 227°
2026-05-06 20:48 34.81973 -115.96636 34617 ft 503 kts 227°
2026-05-06 20:48 34.79543 -115.99714 34182 ft 504 kts 227°
2026-05-06 20:48 34.77079 -116.02831 33688 ft 505 kts 227°
2026-05-06 20:48 34.74682 -116.05875 33183 ft 505 kts 227°
2026-05-06 20:49 34.72254 -116.08973 32690 ft 505 kts 227°
2026-05-06 20:49 34.69833 -116.12060 32205 ft 504 kts 227°
2026-05-06 20:49 34.67413 -116.15143 31710 ft 504 kts 227°
2026-05-06 20:49 34.64992 -116.18221 31220 ft 504 kts 227°
2026-05-06 20:50 34.62564 -116.21307 30739 ft 505 kts 227°
2026-05-06 20:50 34.60141 -116.24380 30276 ft 502 kts 227°
2026-05-06 20:50 34.57733 -116.27432 29753 ft 498 kts 226°
2026-05-06 20:50 34.55347 -116.30453 29209 ft 492 kts 227°
2026-05-06 20:51 34.52990 -116.33434 28669 ft 485 kts 226°
2026-05-06 20:51 34.50665 -116.36372 28148 ft 480 kts 226°
2026-05-06 20:51 34.48389 -116.39246 27633 ft 477 kts 226°
2026-05-06 20:51 34.46090 -116.42147 27108 ft 473 kts 226°
2026-05-06 20:52 34.43825 -116.45019 26615 ft 469 kts 229°
2026-05-06 20:52 34.41804 -116.48080 26119 ft 463 kts 237°
2026-05-06 20:52 34.40148 -116.51390 25631 ft 457 kts 245°
2026-05-06 20:52 34.38743 -116.54827 25148 ft 454 kts 246°
2026-05-06 20:53 34.37348 -116.58237 24663 ft 448 kts 245°
2026-05-06 20:53 34.35972 -116.61581 24246 ft 436 kts 245°
2026-05-06 20:53 34.34643 -116.64796 24032 ft 423 kts 245°
2026-05-06 20:53 34.33317 -116.68010 23709 ft 430 kts 245°
2026-05-06 20:54 34.31995 -116.71260 23174 ft 428 kts 246°
2026-05-06 20:54 34.30716 -116.74451 22640 ft 427 kts 246°
2026-05-06 20:54 34.29423 -116.77685 22089 ft 424 kts 246°
2026-05-06 20:54 34.28138 -116.80890 21526 ft 421 kts 246°
2026-05-06 20:55 34.26860 -116.84068 20976 ft 419 kts 246°
2026-05-06 20:55 34.25586 -116.87226 20439 ft 416 kts 246°
2026-05-06 20:55 34.24334 -116.90327 19921 ft 413 kts 246°
2026-05-06 20:55 34.23076 -116.93440 19414 ft 411 kts 246°
2026-05-06 20:56 34.21834 -116.96508 19122 ft 402 kts 246°
2026-05-06 20:56 34.20744 -116.99594 18644 ft 397 kts 255°
2026-05-06 20:56 34.19899 -117.02752 18180 ft 393 kts 255°
2026-05-06 20:56 34.19062 -117.05879 17577 ft 390 kts 255°
2026-05-06 20:57 34.18233 -117.08973 17186 ft 383 kts 255°
2026-05-06 20:57 34.17406 -117.12038 17040 ft 381 kts 254°
2026-05-06 20:57 34.16578 -117.15079 16610 ft 382 kts 254°
2026-05-06 20:57 34.15746 -117.18115 16171 ft 380 kts 254°
2026-05-06 20:58 34.14916 -117.21123 15747 ft 375 kts 254°
2026-05-06 20:58 34.14095 -117.24100 15284 ft 372 kts 254°
2026-05-06 20:58 34.13291 -117.27019 14831 ft 369 kts 254°
2026-05-06 20:58 34.12484 -117.29945 14386 ft 366 kts 254°
2026-05-06 20:59 34.11684 -117.32841 14106 ft 360 kts 254°
2026-05-06 20:59 34.10889 -117.35721 14013 ft 364 kts 254°
2026-05-06 20:59 34.10094 -117.38627 13866 ft 365 kts 255°
2026-05-06 20:59 34.09349 -117.41557 13377 ft 366 kts 256°
2026-05-06 21:00 34.08627 -117.44504 12794 ft 366 kts 256°
2026-05-06 21:00 34.07909 -117.47428 12424 ft 360 kts 256°
2026-05-06 21:00 34.07201 -117.50287 12087 ft 353 kts 256°
2026-05-06 21:00 34.06490 -117.53112 11662 ft 348 kts 255°
2026-05-06 21:01 34.05795 -117.55828 11464 ft 329 kts 255°
2026-05-06 21:01 34.05133 -117.58400 11180 ft 315 kts 255°
2026-05-06 21:01 34.04497 -117.60877 10651 ft 312 kts 256°
2026-05-06 21:01 34.03863 -117.63358 10260 ft 307 kts 255°
2026-05-06 21:02 34.03224 -117.65857 10028 ft 308 kts 256°
2026-05-06 21:02 34.02602 -117.68288 9613 ft 306 kts 256°
2026-05-06 21:02 34.02103 -117.70757 9164 ft 298 kts 265°
2026-05-06 21:02 34.01876 -117.73250 9087 ft 299 kts 267°
2026-05-06 21:03 34.01643 -117.75715 8978 ft 293 kts 266°
2026-05-06 21:03 34.01404 -117.78147 8697 ft 291 kts 266°
2026-05-06 21:03 34.01168 -117.80553 8350 ft 289 kts 266°
2026-05-06 21:03 34.00934 -117.82939 8141 ft 280 kts 266°
2026-05-06 21:04 34.00708 -117.85233 7746 ft 273 kts 266°
2026-05-06 21:04 34.00487 -117.87501 7226 ft 273 kts 266°
2026-05-06 21:04 34.00270 -117.89733 6750 ft 270 kts 266°
2026-05-06 21:04 34.00129 -117.91979 6240 ft 267 kts 269°
2026-05-06 21:05 33.99980 -117.94189 5768 ft 264 kts 266°
2026-05-06 21:05 33.99845 -117.95618 5475 ft 263 kts 265°
2026-05-06 21:05 33.99654 -117.97430 5094 ft 260 kts 265°
2026-05-06 21:05 33.99429 -117.99577 4749 ft 255 kts 265°
2026-05-06 21:06 33.99292 -118.00886 4542 ft 253 kts 264°
2026-05-06 21:06 33.99153 -118.02194 4359 ft 250 kts 264°
2026-05-06 21:06 33.99075 -118.02937 4222 ft 250 kts 264°
2026-05-06 21:07 33.98973 -118.03904 4091 ft 248 kts 264°
2026-05-06 21:07 33.98759 -118.05944 3946 ft 245 kts 264°
2026-05-06 21:07 33.98547 -118.07963 3886 ft 239 kts 264°
2026-05-06 21:07 33.98401 -118.09351 3754 ft 234 kts 264°
2026-05-06 21:08 33.98200 -118.11283 3564 ft 229 kts 264°
2026-05-06 21:08 33.98004 -118.13152 3359 ft 221 kts 264°
2026-05-06 21:08 33.97816 -118.14956 3015 ft 218 kts 263°
2026-05-06 21:08 33.97631 -118.16735 2852 ft 209 kts 263°
2026-05-06 21:09 33.97453 -118.18445 2624 ft 203 kts 262°
2026-05-06 21:09 33.97277 -118.20132 2333 ft 202 kts 262°
2026-05-06 21:09 33.97109 -118.21763 2204 ft 189 kts 262°
2026-05-06 21:09 33.96944 -118.23342 2240 ft 190 kts 262°
2026-05-06 21:10 33.96788 -118.24851 2221 ft 170 kts 262°
2026-05-06 21:10 33.96651 -118.26179 2226 ft 152 kts 262°
2026-05-06 21:10 33.96546 -118.27186 2215 ft 156 kts 262°
2026-05-06 21:10 33.96426 -118.28347 2112 ft 160 kts 262°
2026-05-06 21:11 33.96292 -118.29654 1905 ft 158 kts 262°
2026-05-06 21:11 33.96162 -118.30921 1686 ft 144 kts 262°
2026-05-06 21:11 33.96046 -118.32043 1490 ft 129 kts 262°
2026-05-06 21:11 33.95935 -118.33128 1338 ft 135 kts 262°
2026-05-06 21:12 33.95820 -118.34249 1160 ft 134 kts 262°
2026-05-06 21:12 33.95706 -118.35353 975 ft 132 kts 262°
2026-05-06 21:12 33.95594 -118.36443 788 ft 128 kts 264°
2026-05-06 21:12 33.95486 -118.37491 626 ft 127 kts 262°
2026-05-06 21:13 33.95375 -118.38594 458 ft 136 kts 262°
2026-05-06 21:13 33.95264 -118.39699 228 ft 127 kts 262°
2026-05-06 21:13 33.95161 -118.40709 134 ft 114 kts 262°
2026-05-06 21:13 33.95077 -118.41497 121 ft 67 kts 264°
2026-05-06 21:14 33.95007 -118.41808 124 ft 10 kts 247°
2026-05-06 21:14 33.94977 -118.41865 123 ft 16 kts 234°
2026-05-06 21:14 33.94907 -118.41978 124 ft 18 kts 232°
2026-05-06 21:14 33.94830 -118.42100 122 ft 19 kts 233°
2026-05-06 21:15 33.94740 -118.42216 121 ft 18 kts 191°
2026-05-06 21:15 33.94696 -118.42133 125 ft 13 kts 87°
2026-05-06 21:15 33.94707 -118.42008 125 ft 17 kts 83°
2026-05-06 21:15 33.94721 -118.41853 125 ft 20 kts 83°
2026-05-06 21:16 33.94741 -118.41671 125 ft 23 kts 82°
2026-05-06 21:16 33.94763 -118.41467 121 ft 21 kts 83°
2026-05-06 21:16 33.94795 -118.41289 125 ft 23 kts 83°
2026-05-06 21:16 33.94816 -118.41082 125 ft 26 kts 83°
2026-05-06 21:17 33.94838 -118.40853 125 ft 29 kts 83°
2026-05-06 21:17 33.94862 -118.40603 121 ft 31 kts 84°
2026-05-06 21:17 33.94887 -118.40379 125 ft 22 kts 86°
2026-05-06 21:17 33.94805 -118.40275 123 ft 17 kts 160°
2026-05-06 21:18 33.94693 -118.40253 123 ft 15 kts 174°
2026-05-06 21:18 33.94649 -118.40217 123 ft 4 kts 102°
2026-05-06 21:18 33.94646 -118.40195 124 ft 0 kts 92°
2026-05-06 21:18 33.94648 -118.40190 123 ft 2 kts 81°
2026-05-06 21:19 33.94648 -118.40180 122 ft 0 kts 84°